{"data":{"norad_id":47916,"intl_designator":"2021-021BJ","name":"STARLINK-2378","alt_names":[],"object_type":"PAYLOAD","status":"ACTIVE","operator":null,"country":"US","launch_date":"2021-03-14","launch_site_code":"AFETR","launch_vehicle":null,"mission":null,"orbit_class":"UNKNOWN","rcs_meters":null,"size_class":null,"mass_kg":null,"dimensions":null,"purposes":["comms"],"wikipedia_slug":null,"has_3d_model":false,"image_url":null,"decayed_at":null,"tle_current":{"epoch":"2026-09-19T18:56:31.962912Z","epoch_age_seconds":91686,"freshness":"FRESH","line1":"1 47916U 21021BJ  26262.78925883  .00032025  00000+0  98966-3 0  9993","line2":"2 47916  53.1583  71.9843 0000522   9.6403 350.4609 15.33266427306158","mean_motion":15.33266427,"eccentricity":5.22e-5,"inclination_deg":53.1583,"raan_deg":71.9843,"arg_perigee_deg":9.6403,"mean_anomaly_deg":350.4609,"bstar":0.00098966,"rev_number":30615,"period_min":93.917141511897,"perigee_km":465.71726581256,"apogee_km":466.43180149667,"semimajor_km":6844.2115336546,"source":"CELESTRAK","updated_at":"2026-09-20T09:00:38.758119Z"}}}